Location: Brompton
(51.4000°N, 0.5333°E)
Time: 17:14:23
(UTC+00:00)

USA 215 - Pass Details

Date: 11 May 2021
Orbit: 1100 x 1107 km, 123.0° (Epoch: 14 June)

Event Time Altitude Azimuth Distance (km) Brightness Sun altitude
Exits shadow 23:13:58 10° 114° (ESE) 2,984 5.2 -19.9°
Reaches altitude 10° 23:14:02 10° 114° (ESE) 2,955 5.2 -19.9°
Maximum altitude 23:20:34 85° 28° (NNE) 1,111 3.2 -20.1°
Drops below altitude 10° 23:27:09 10° 299° (WNW) 2,966 6.0 -20.2°
Sets 23:29:38 0° 300° (WNW) 3,926 6.7 -20.3°
